A123 TDPD-GMMN

Flight info

Callsign A123
Flight time 5h 55m
Altitude 39000
Route KAROT DCT OTUSU UN669 ELJEZ/M079F390 DCT 22N050W 26N040W 29N030W 32N020W DCT ABALO/N0453F400 DCT NIPRI DCT RAVOL
Aircraft A333/H-SDE3GHIJ2J3J5M1RVWXY/LB2D1

Departure

Time 2026-04-26 17:06
Airport Douglas-Charles Airport (TDPD)

Arrival

Time 2026-04-26 23:01
Airport Mohammed V International Airport (GMMN)
Time Latitude Longitude Altitude Speed Heading
2026-04-26 16:54 15.54621 -61.30240 46 ft 2 kts 67°
2026-04-26 16:54 15.54615 -61.30255 46 ft 2 kts 67°
2026-04-26 16:54 15.54610 -61.30269 47 ft 2 kts 67°
2026-04-26 16:55 15.54604 -61.30284 47 ft 2 kts 71°
2026-04-26 16:55 15.54599 -61.30298 49 ft 2 kts 71°
2026-04-26 16:55 15.54594 -61.30313 48 ft 2 kts 71°
2026-04-26 16:55 15.54589 -61.30327 49 ft 2 kts 71°
2026-04-26 16:56 15.54582 -61.30358 50 ft 2 kts 75°
2026-04-26 16:56 15.54578 -61.30373 50 ft 2 kts 75°
2026-04-26 16:56 15.54574 -61.30388 52 ft 2 kts 75°
2026-04-26 16:57 15.54570 -61.30404 54 ft 2 kts 57°
2026-04-26 16:57 15.54562 -61.30417 54 ft 2 kts 57°
2026-04-26 16:57 15.54547 -61.30445 52 ft 2 kts 71°
2026-04-26 16:58 15.54542 -61.30459 53 ft 2 kts 69°
2026-04-26 16:58 15.54540 -61.30464 53 ft 2 kts 69°
2026-04-26 16:58 15.54527 -61.30502 56 ft 2 kts 69°
2026-04-26 16:59 15.54521 -61.30516 55 ft 2 kts 69°
2026-04-26 16:59 15.54511 -61.30544 56 ft 2 kts 69°
2026-04-26 17:00 15.54501 -61.30572 62 ft 2 kts 69°
2026-04-26 17:00 15.54491 -61.30600 61 ft 2 kts 69°
2026-04-26 17:00 15.54486 -61.30614 60 ft 2 kts 69°
2026-04-26 17:01 15.54481 -61.30627 60 ft 2 kts 69°
2026-04-26 17:01 15.54476 -61.30642 63 ft 2 kts 69°
2026-04-26 17:01 15.54471 -61.30655 64 ft 2 kts 69°
2026-04-26 17:01 15.54466 -61.30669 62 ft 2 kts 69°
2026-04-26 17:02 15.54461 -61.30683 66 ft 2 kts 69°
2026-04-26 17:02 15.54456 -61.30698 64 ft 2 kts 69°
2026-04-26 17:02 15.54451 -61.30712 64 ft 2 kts 69°
2026-04-26 17:02 15.54446 -61.30726 65 ft 2 kts 69°
2026-04-26 17:03 15.54441 -61.30740 65 ft 2 kts 69°
2026-04-26 17:03 15.54436 -61.30754 66 ft 2 kts 69°
2026-04-26 17:03 15.54431 -61.30768 67 ft 2 kts 69°
2026-04-26 17:03 15.54426 -61.30782 67 ft 2 kts 69°
2026-04-26 17:04 15.54426 -61.30783 67 ft 1 kts 69°
2026-04-26 17:04 15.54426 -61.30781 67 ft 0 kts 69°
2026-04-26 17:04 15.54427 -61.30781 67 ft 0 kts 69°
2026-04-26 17:05 15.54428 -61.30777 67 ft 1 kts 69°
2026-04-26 17:05 15.54433 -61.30762 66 ft 18 kts 69°
2026-04-26 17:05 15.54575 -61.30363 54 ft 97 kts 70°
2026-04-26 17:05 15.54892 -61.29475 51 ft 161 kts 69°
2026-04-26 17:06 15.55312 -61.28268 485 ft 193 kts 70°
2026-04-26 17:06 15.55617 -61.27406 1217 ft 183 kts 72°
2026-04-26 17:06 15.56024 -61.26277 2812 ft 154 kts 75°
2026-04-26 17:06 15.56379 -61.25312 3957 ft 135 kts 75°
2026-04-26 17:07 15.56725 -61.24314 4279 ft 172 kts 77°
2026-04-26 17:07 15.57144 -61.22951 4497 ft 223 kts 75°
2026-04-26 17:07 15.57744 -61.21317 4912 ft 262 kts 68°
2026-04-26 17:07 15.58614 -61.19553 5333 ft 282 kts 64°
2026-04-26 17:08 15.59557 -61.17855 5716 ft 257 kts 62°
2026-04-26 17:08 15.60463 -61.16320 6122 ft 247 kts 61°
2026-04-26 17:08 15.61354 -61.14823 6527 ft 247 kts 62°
2026-04-26 17:08 15.62250 -61.13301 6927 ft 247 kts 62°
2026-04-26 17:09 15.63143 -61.11764 7336 ft 250 kts 62°
2026-04-26 17:09 15.63737 -61.10730 7583 ft 253 kts 62°
2026-04-26 17:09 15.64941 -61.08615 8188 ft 256 kts 62°
2026-04-26 17:09 15.65849 -61.07014 8677 ft 259 kts 62°
2026-04-26 17:10 15.66778 -61.05372 9182 ft 270 kts 62°
2026-04-26 17:10 15.67752 -61.03648 9698 ft 283 kts 61°
2026-04-26 17:10 15.68771 -61.01844 10187 ft 295 kts 62°
2026-04-26 17:10 15.69821 -60.99990 10632 ft 301 kts 61°
2026-04-26 17:11 15.70883 -60.98119 10885 ft 304 kts 61°
2026-04-26 17:11 15.71961 -60.96220 10938 ft 305 kts 61°
2026-04-26 17:11 15.73041 -60.94316 10940 ft 306 kts 61°
2026-04-26 17:11 15.74121 -60.92412 10938 ft 306 kts 61°
2026-04-26 17:12 15.76285 -60.88591 10938 ft 307 kts 61°
2026-04-26 17:12 15.77371 -60.86673 10939 ft 307 kts 61°
2026-04-26 17:13 15.79533 -60.82849 10938 ft 307 kts 61°
2026-04-26 17:13 15.80656 -60.80859 10950 ft 333 kts 61°
2026-04-26 17:13 15.83157 -60.76419 10941 ft 369 kts 61°
2026-04-26 17:14 15.84463 -60.74109 10966 ft 371 kts 61°
2026-04-26 17:14 15.87057 -60.69526 11431 ft 366 kts 61°
2026-04-26 17:14 15.88335 -60.67269 11672 ft 360 kts 61°
2026-04-26 17:15 15.90868 -60.62780 12155 ft 361 kts 61°
2026-04-26 17:15 15.92143 -60.60517 12405 ft 363 kts 61°
2026-04-26 17:15 15.93423 -60.58245 12648 ft 364 kts 61°
2026-04-26 17:16 15.94706 -60.55967 12912 ft 366 kts 61°
2026-04-26 17:16 15.95978 -60.53708 13167 ft 367 kts 61°
2026-04-26 17:16 15.97286 -60.51384 13394 ft 369 kts 61°
2026-04-26 17:16 15.98569 -60.49105 13660 ft 371 kts 61°
2026-04-26 17:17 15.99871 -60.46791 13910 ft 372 kts 61°
2026-04-26 17:17 16.01183 -60.44459 14143 ft 374 kts 61°
2026-04-26 17:17 16.02502 -60.42114 14362 ft 376 kts 61°
2026-04-26 17:17 16.03826 -60.39758 14596 ft 378 kts 61°
2026-04-26 17:18 16.05157 -60.37391 14835 ft 379 kts 61°
2026-04-26 17:18 16.06493 -60.35013 15058 ft 381 kts 61°
2026-04-26 17:18 16.07830 -60.32633 15297 ft 382 kts 61°
2026-04-26 17:18 16.09159 -60.30267 15523 ft 384 kts 61°
2026-04-26 17:19 16.11862 -60.25450 15998 ft 387 kts 61°
2026-04-26 17:19 16.13223 -60.23022 16258 ft 388 kts 61°
2026-04-26 17:19 16.14586 -60.20593 16508 ft 390 kts 61°
2026-04-26 17:20 16.15953 -60.18154 16748 ft 391 kts 62°
2026-04-26 17:20 16.16869 -60.16518 16900 ft 392 kts 61°
2026-04-26 17:20 16.18710 -60.13231 17239 ft 395 kts 61°
2026-04-26 17:20 16.20081 -60.10783 17490 ft 397 kts 61°
2026-04-26 17:21 16.21488 -60.08269 17740 ft 398 kts 61°
2026-04-26 17:21 16.22871 -60.05798 17999 ft 400 kts 61°
2026-04-26 17:21 16.24273 -60.03291 18266 ft 402 kts 61°
2026-04-26 17:21 16.25687 -60.00761 18488 ft 404 kts 61°
2026-04-26 17:22 16.27107 -59.98222 18700 ft 405 kts 61°
2026-04-26 17:22 16.28528 -59.95679 18928 ft 407 kts 61°
2026-04-26 17:22 16.29936 -59.93157 19155 ft 408 kts 61°
2026-04-26 17:22 16.31365 -59.90599 19377 ft 410 kts 61°
2026-04-26 17:23 16.32802 -59.88025 19608 ft 411 kts 61°
2026-04-26 17:23 16.34240 -59.85447 19840 ft 412 kts 61°
2026-04-26 17:23 16.35681 -59.82862 20073 ft 413 kts 61°
2026-04-26 17:23 16.37130 -59.80264 20309 ft 415 kts 61°
2026-04-26 17:24 16.38581 -59.77661 20558 ft 417 kts 61°
2026-04-26 17:24 16.40039 -59.75043 20793 ft 419 kts 61°
2026-04-26 17:24 16.41506 -59.72409 21021 ft 421 kts 61°
2026-04-26 17:24 16.42980 -59.69761 21277 ft 423 kts 61°
2026-04-26 17:25 16.44459 -59.67104 21526 ft 425 kts 61°
2026-04-26 17:25 16.45944 -59.64434 21764 ft 427 kts 61°
2026-04-26 17:25 16.47434 -59.61754 22015 ft 428 kts 61°
2026-04-26 17:25 16.48931 -59.59062 22260 ft 430 kts 62°
2026-04-26 17:26 16.50435 -59.56354 22513 ft 433 kts 62°
2026-04-26 17:26 16.51927 -59.53668 22764 ft 435 kts 62°
2026-04-26 17:26 16.53448 -59.50928 23019 ft 437 kts 62°
2026-04-26 17:26 16.54974 -59.48178 23288 ft 439 kts 62°
2026-04-26 17:27 16.56509 -59.45411 23544 ft 441 kts 62°
2026-04-26 17:27 16.58049 -59.42633 23771 ft 444 kts 62°
2026-04-26 17:27 16.59597 -59.39841 23981 ft 445 kts 62°
2026-04-26 17:27 16.61152 -59.37036 24213 ft 447 kts 61°
2026-04-26 17:28 16.62713 -59.34218 24425 ft 448 kts 61°
2026-04-26 17:28 16.64255 -59.31433 24646 ft 450 kts 62°
2026-04-26 17:28 16.65842 -59.28566 24875 ft 452 kts 61°
2026-04-26 17:28 16.67415 -59.25722 25104 ft 453 kts 61°
2026-04-26 17:29 16.68971 -59.22909 25325 ft 455 kts 61°
2026-04-26 17:29 16.70040 -59.20975 25480 ft 456 kts 61°
2026-04-26 17:29 16.72144 -59.17167 25800 ft 458 kts 61°
2026-04-26 17:29 16.73739 -59.14280 26013 ft 459 kts 61°
2026-04-26 17:30 16.75335 -59.11388 26249 ft 461 kts 61°
2026-04-26 17:30 16.76938 -59.08483 26494 ft 462 kts 60°
2026-04-26 17:30 16.78548 -59.05565 26732 ft 464 kts 60°
2026-04-26 17:30 16.80158 -59.02644 26975 ft 466 kts 60°
2026-04-26 17:31 16.81778 -58.99705 27217 ft 467 kts 60°
2026-04-26 17:31 16.83383 -58.96793 27459 ft 468 kts 60°
2026-04-26 17:31 16.85012 -58.93834 27712 ft 470 kts 60°
2026-04-26 17:31 16.86645 -58.90867 27960 ft 473 kts 60°
2026-04-26 17:32 16.88291 -58.87876 28219 ft 475 kts 60°
2026-04-26 17:32 16.89941 -58.84876 28473 ft 477 kts 60°
2026-04-26 17:32 16.91594 -58.81869 28730 ft 479 kts 60°
2026-04-26 17:32 16.93257 -58.78841 28996 ft 481 kts 60°
2026-04-26 17:33 16.94927 -58.75802 29247 ft 483 kts 60°
2026-04-26 17:33 16.96600 -58.72754 29500 ft 485 kts 60°
2026-04-26 17:33 16.98280 -58.69691 29773 ft 486 kts 60°
2026-04-26 17:34 17.01663 -58.63522 30288 ft 490 kts 60°
2026-04-26 17:34 17.03358 -58.60429 30509 ft 491 kts 60°
2026-04-26 17:34 17.05050 -58.57339 30740 ft 490 kts 60°
2026-04-26 17:34 17.06744 -58.54244 30979 ft 490 kts 60°
2026-04-26 17:35 17.08437 -58.51151 31203 ft 490 kts 59°
2026-04-26 17:35 17.10111 -58.48090 31426 ft 490 kts 59°
2026-04-26 17:35 17.11801 -58.44999 31670 ft 489 kts 60°
2026-04-26 17:35 17.13490 -58.41909 31906 ft 489 kts 60°
2026-04-26 17:36 17.15172 -58.38828 32144 ft 488 kts 60°
2026-04-26 17:36 17.16855 -58.35745 32387 ft 488 kts 60°
2026-04-26 17:36 17.18543 -58.32652 32632 ft 487 kts 60°
2026-04-26 17:36 17.20201 -58.29612 32876 ft 487 kts 60°
2026-04-26 17:37 17.21899 -58.26498 33125 ft 487 kts 60°
2026-04-26 17:37 17.23552 -58.23465 33378 ft 486 kts 60°
2026-04-26 17:37 17.25229 -58.20386 33630 ft 486 kts 60°
2026-04-26 17:38 17.28574 -58.14240 34119 ft 485 kts 60°
2026-04-26 17:38 17.30244 -58.11170 34353 ft 484 kts 60°
2026-04-26 17:38 17.31912 -58.08101 34570 ft 484 kts 60°
2026-04-26 17:38 17.33555 -58.05078 34803 ft 483 kts 60°
2026-04-26 17:39 17.35215 -58.02022 35037 ft 483 kts 60°
2026-04-26 17:39 17.36877 -57.98961 35267 ft 482 kts 60°
2026-04-26 17:39 17.38539 -57.95898 35507 ft 482 kts 60°
2026-04-26 17:39 17.40193 -57.92850 35751 ft 481 kts 60°
2026-04-26 17:40 17.41845 -57.89802 35982 ft 481 kts 60°
2026-04-26 17:40 17.42382 -57.88812 36059 ft 481 kts 60°
2026-04-26 17:40 17.45147 -57.83709 36466 ft 480 kts 60°
2026-04-26 17:40 17.46792 -57.80671 36708 ft 479 kts 60°
2026-04-26 17:41 17.48435 -57.77635 36957 ft 478 kts 60°
2026-04-26 17:41 17.50071 -57.74610 37207 ft 477 kts 60°
2026-04-26 17:41 17.51705 -57.71587 37471 ft 476 kts 60°
2026-04-26 17:41 17.53318 -57.68604 37723 ft 474 kts 60°
2026-04-26 17:42 17.54938 -57.65604 37923 ft 474 kts 60°
2026-04-26 17:42 17.56571 -57.62580 37967 ft 478 kts 60°
2026-04-26 17:42 17.59860 -57.56483 37965 ft 481 kts 60°
2026-04-26 17:43 17.63152 -57.50389 37947 ft 480 kts 58°
2026-04-26 17:43 17.67006 -57.44682 37956 ft 479 kts 52°
2026-04-26 17:44 17.71070 -57.39142 37964 ft 479 kts 51°
2026-04-26 17:44 17.75149 -57.33662 37951 ft 480 kts 51°
2026-04-26 17:45 17.79273 -57.28110 37952 ft 483 kts 51°
2026-04-26 17:45 17.83395 -57.22538 37972 ft 483 kts 51°
2026-04-26 17:46 17.87518 -57.16953 37972 ft 485 kts 51°
2026-04-26 17:46 17.91665 -57.11329 37953 ft 494 kts 51°
2026-04-26 17:47 17.94500 -57.07484 37965 ft 501 kts 51°
2026-04-26 17:47 18.00159 -56.99621 37969 ft 514 kts 55°
2026-04-26 17:48 18.04107 -56.93275 37966 ft 523 kts 56°
2026-04-26 17:48 18.08020 -56.86796 37964 ft 525 kts 57°
2026-04-26 17:49 18.11889 -56.80353 37966 ft 523 kts 56°
2026-04-26 17:49 18.15779 -56.73885 37964 ft 522 kts 56°
2026-04-26 17:50 18.19673 -56.67418 37965 ft 522 kts 56°
2026-04-26 17:50 18.23559 -56.60963 37963 ft 522 kts 56°
2026-04-26 17:51 18.27444 -56.54501 37965 ft 522 kts 56°
2026-04-26 17:51 18.31303 -56.48076 37963 ft 522 kts 56°
2026-04-26 17:52 18.35185 -56.41606 37965 ft 522 kts 56°
2026-04-26 17:52 18.39064 -56.35134 37967 ft 522 kts 56°
2026-04-26 17:53 18.42281 -56.29760 37964 ft 523 kts 56°
2026-04-26 17:54 18.48766 -56.18917 37964 ft 526 kts 56°
2026-04-26 17:54 18.52031 -56.13450 37964 ft 526 kts 56°
2026-04-26 17:55 18.55904 -56.06960 37970 ft 526 kts 56°
2026-04-26 17:55 18.59800 -56.00424 37969 ft 526 kts 56°
2026-04-26 17:56 18.63692 -55.93888 37975 ft 527 kts 56°
2026-04-26 17:57 18.71543 -55.80685 37964 ft 532 kts 56°
2026-04-26 17:57 18.75470 -55.74067 37969 ft 532 kts 55°
2026-04-26 17:58 18.83309 -55.60840 37973 ft 532 kts 55°
2026-04-26 17:59 18.89188 -55.50903 37969 ft 534 kts 55°
2026-04-26 17:59 18.93124 -55.44240 37973 ft 534 kts 55°
2026-04-26 18:00 18.97057 -55.37575 37972 ft 534 kts 55°
2026-04-26 18:00 19.00985 -55.30913 37978 ft 534 kts 55°
2026-04-26 18:01 19.04907 -55.24250 37980 ft 534 kts 55°
2026-04-26 18:01 19.08833 -55.17576 37975 ft 534 kts 55°
2026-04-26 18:02 19.12093 -55.12029 37974 ft 534 kts 55°
2026-04-26 18:02 19.16655 -55.04256 37972 ft 534 kts 55°
2026-04-26 18:03 19.20571 -54.97578 37975 ft 534 kts 55°
2026-04-26 18:03 19.24485 -54.90894 37979 ft 534 kts 55°
2026-04-26 18:04 19.28401 -54.84200 37977 ft 533 kts 55°
2026-04-26 18:05 19.34237 -54.74211 37972 ft 533 kts 55°
2026-04-26 18:05 19.38139 -54.67524 37975 ft 533 kts 55°
2026-04-26 18:06 19.42032 -54.60843 37977 ft 533 kts 55°
2026-04-26 18:06 19.45937 -54.54135 37983 ft 533 kts 55°
2026-04-26 18:07 19.49812 -54.47471 37975 ft 534 kts 55°
2026-04-26 18:07 19.53705 -54.40769 37979 ft 533 kts 55°
2026-04-26 18:08 19.57590 -54.34072 37977 ft 533 kts 55°
2026-04-26 18:08 19.61479 -54.27361 37977 ft 533 kts 55°
2026-04-26 18:09 19.65340 -54.20692 37988 ft 533 kts 55°
2026-04-26 18:09 19.69223 -54.13978 37985 ft 534 kts 55°
2026-04-26 18:10 19.73103 -54.07258 37980 ft 534 kts 55°
2026-04-26 18:10 19.76984 -54.00533 37986 ft 534 kts 55°
2026-04-26 18:11 19.80857 -53.93811 37977 ft 534 kts 55°
2026-04-26 18:11 19.84728 -53.87086 37992 ft 534 kts 55°
2026-04-26 18:12 19.88608 -53.80340 37988 ft 535 kts 55°
2026-04-26 18:12 19.92463 -53.73626 37984 ft 535 kts 55°
2026-04-26 18:13 19.96344 -53.66860 37984 ft 534 kts 55°
2026-04-26 18:13 20.00192 -53.60144 37985 ft 534 kts 55°
2026-04-26 18:14 20.04053 -53.53398 37991 ft 534 kts 55°
2026-04-26 18:14 20.07932 -53.46616 37988 ft 536 kts 56°
2026-04-26 18:15 20.11808 -53.39827 37991 ft 537 kts 56°
2026-04-26 18:15 20.15681 -53.33035 37992 ft 537 kts 56°
2026-04-26 18:16 20.19560 -53.26226 37988 ft 537 kts 56°
2026-04-26 18:16 20.25337 -53.16069 37990 ft 536 kts 56°
2026-04-26 18:17 20.29195 -53.09277 37990 ft 535 kts 56°
2026-04-26 18:17 20.33063 -53.02460 37985 ft 535 kts 56°
2026-04-26 18:18 20.36891 -52.95704 37986 ft 535 kts 56°
2026-04-26 18:18 20.40734 -52.88913 37998 ft 535 kts 56°
2026-04-26 18:19 20.44577 -52.82117 37990 ft 536 kts 56°
2026-04-26 18:19 20.48432 -52.75291 37985 ft 536 kts 56°
2026-04-26 18:20 20.52253 -52.68514 37990 ft 536 kts 56°
2026-04-26 18:20 20.55468 -52.62808 37983 ft 535 kts 56°
2026-04-26 18:21 20.59925 -52.54888 38005 ft 536 kts 56°
2026-04-26 18:21 20.63769 -52.48048 37989 ft 537 kts 56°
2026-04-26 18:22 20.67615 -52.41195 37990 ft 537 kts 56°
2026-04-26 18:22 20.71427 -52.34395 37987 ft 537 kts 56°
2026-04-26 18:23 20.75264 -52.27543 37989 ft 537 kts 56°
2026-04-26 18:23 20.79100 -52.20683 37998 ft 536 kts 56°
2026-04-26 18:24 20.82911 -52.13861 37992 ft 537 kts 56°
2026-04-26 18:24 20.86748 -52.06985 37995 ft 538 kts 56°
2026-04-26 18:25 20.90573 -52.00119 37992 ft 537 kts 56°
2026-04-26 18:25 20.94360 -51.93313 37994 ft 536 kts 56°
2026-04-26 18:26 20.98175 -51.86450 37995 ft 537 kts 56°
2026-04-26 18:26 21.02008 -51.79548 37992 ft 538 kts 56°
2026-04-26 18:27 21.05827 -51.72659 38000 ft 537 kts 56°
2026-04-26 18:27 21.09639 -51.65776 37996 ft 537 kts 56°
2026-04-26 18:28 21.13425 -51.58930 37998 ft 537 kts 56°
2026-04-26 18:28 21.17243 -51.52020 38008 ft 538 kts 56°
2026-04-26 18:29 21.21056 -51.45110 38002 ft 539 kts 56°
2026-04-26 18:29 21.24864 -51.38198 37988 ft 539 kts 56°
2026-04-26 18:30 21.28674 -51.31276 38000 ft 538 kts 56°
2026-04-26 18:30 21.32475 -51.24358 37998 ft 538 kts 56°
2026-04-26 18:31 21.36259 -51.17467 37997 ft 539 kts 56°
2026-04-26 18:31 21.40069 -51.10518 38015 ft 540 kts 56°
2026-04-26 18:32 21.43869 -51.03578 38001 ft 540 kts 56°
2026-04-26 18:32 21.47669 -50.96630 38001 ft 539 kts 56°
2026-04-26 18:33 21.51472 -50.89668 38000 ft 541 kts 56°
2026-04-26 18:33 21.55257 -50.82729 38001 ft 541 kts 56°
2026-04-26 18:34 21.59062 -50.75743 38001 ft 541 kts 56°
2026-04-26 18:34 21.62860 -50.68762 38005 ft 541 kts 56°
2026-04-26 18:35 21.66658 -50.61772 38006 ft 541 kts 56°
2026-04-26 18:35 21.70439 -50.54805 38003 ft 542 kts 56°
2026-04-26 18:36 21.74240 -50.47792 38004 ft 542 kts 56°
2026-04-26 18:36 21.78032 -50.40786 38001 ft 542 kts 56°
2026-04-26 18:37 21.81823 -50.33772 38014 ft 541 kts 56°
2026-04-26 18:37 21.85614 -50.26750 38000 ft 543 kts 56°
2026-04-26 18:38 21.89410 -50.19711 38008 ft 544 kts 56°
2026-04-26 18:38 21.93178 -50.12710 38007 ft 543 kts 56°
2026-04-26 18:39 21.96970 -50.05658 38007 ft 542 kts 56°
2026-04-26 18:39 22.00683 -49.98642 38007 ft 543 kts 58°
2026-04-26 18:40 22.04025 -49.91324 38008 ft 544 kts 62°
2026-04-26 18:40 22.07210 -49.83934 38007 ft 544 kts 62°
2026-04-26 18:41 22.09886 -49.77774 38009 ft 544 kts 61°
2026-04-26 18:41 22.13124 -49.70409 38021 ft 543 kts 61°
2026-04-26 18:42 22.16377 -49.63049 38008 ft 544 kts 61°
2026-04-26 18:42 22.19643 -49.55656 38006 ft 545 kts 61°
2026-04-26 18:43 22.22902 -49.48262 38003 ft 545 kts 61°
2026-04-26 18:43 22.26127 -49.40930 38011 ft 543 kts 61°
2026-04-26 18:44 22.29365 -49.33558 38016 ft 544 kts 61°
2026-04-26 18:44 22.32619 -49.26142 38009 ft 546 kts 61°
2026-04-26 18:45 22.35863 -49.18731 38008 ft 545 kts 61°
2026-04-26 18:45 22.39084 -49.11363 38011 ft 545 kts 61°
2026-04-26 18:46 22.42322 -49.03947 38006 ft 544 kts 61°
2026-04-26 18:46 22.45552 -48.96537 38010 ft 546 kts 61°
2026-04-26 18:47 22.48792 -48.89095 38016 ft 547 kts 61°
2026-04-26 18:47 22.52037 -48.81628 38004 ft 547 kts 61°
2026-04-26 18:48 22.55248 -48.74229 38009 ft 547 kts 61°
2026-04-26 18:48 22.58481 -48.66767 38011 ft 548 kts 62°
2026-04-26 18:49 22.61724 -48.59274 38012 ft 550 kts 62°
2026-04-26 18:49 22.64968 -48.51762 38012 ft 549 kts 62°
2026-04-26 18:50 22.68180 -48.44313 38014 ft 549 kts 62°
2026-04-26 18:50 22.71405 -48.36823 38034 ft 548 kts 62°
2026-04-26 18:51 22.74637 -48.29306 38013 ft 550 kts 62°
2026-04-26 18:51 22.77875 -48.21766 38007 ft 551 kts 62°
2026-04-26 18:52 22.81079 -48.14287 38012 ft 549 kts 62°
2026-04-26 18:52 22.84292 -48.06777 38015 ft 549 kts 62°
2026-04-26 18:53 22.87506 -47.99257 38010 ft 551 kts 62°
2026-04-26 18:53 22.90729 -47.91704 38015 ft 552 kts 62°
2026-04-26 18:54 22.93939 -47.84166 38018 ft 551 kts 62°
2026-04-26 18:54 22.97152 -47.76609 38017 ft 551 kts 62°
2026-04-26 18:55 23.00354 -47.69065 38017 ft 550 kts 62°
2026-04-26 18:55 23.03569 -47.61484 38015 ft 554 kts 62°
2026-04-26 18:56 23.06770 -47.53921 38020 ft 553 kts 62°
2026-04-26 18:56 23.09972 -47.46340 38020 ft 551 kts 62°
2026-04-26 18:57 23.12635 -47.40028 38037 ft 551 kts 62°
2026-04-26 18:57 23.16362 -47.31185 38018 ft 554 kts 62°
2026-04-26 18:58 23.19568 -47.23562 38020 ft 554 kts 62°
2026-04-26 18:58 23.22768 -47.15937 38020 ft 554 kts 62°
2026-04-26 18:59 23.25965 -47.08309 38031 ft 553 kts 61°
2026-04-26 18:59 23.29140 -47.00722 38017 ft 556 kts 61°
2026-04-26 19:00 23.32351 -46.93037 38020 ft 556 kts 61°
2026-04-26 19:00 23.35545 -46.85376 38020 ft 555 kts 62°
2026-04-26 19:01 23.38734 -46.77716 38014 ft 555 kts 62°
2026-04-26 19:01 23.41919 -46.70056 38020 ft 555 kts 62°
2026-04-26 19:02 23.45080 -46.62439 38018 ft 555 kts 62°
2026-04-26 19:02 23.47741 -46.56017 38010 ft 555 kts 62°
2026-04-26 19:03 23.51421 -46.47123 38030 ft 553 kts 62°
2026-04-26 19:03 23.54591 -46.39448 38021 ft 556 kts 62°
2026-04-26 19:04 23.57768 -46.31743 38016 ft 556 kts 62°
2026-04-26 19:04 23.60929 -46.24059 38020 ft 554 kts 62°
2026-04-26 19:05 23.65636 -46.12595 38021 ft 555 kts 62°
2026-04-26 19:06 23.68795 -46.04892 38020 ft 556 kts 62°
2026-04-26 19:06 23.71952 -45.97177 38020 ft 557 kts 62°
2026-04-26 19:07 23.75102 -45.89462 38020 ft 555 kts 62°
2026-04-26 19:07 23.78238 -45.81770 38021 ft 555 kts 62°
2026-04-26 19:08 23.81384 -45.74047 38018 ft 556 kts 62°
2026-04-26 19:08 23.84503 -45.66372 38023 ft 556 kts 62°
2026-04-26 19:09 23.87637 -45.58645 38023 ft 555 kts 62°
2026-04-26 19:09 23.90767 -45.50914 38023 ft 556 kts 62°
2026-04-26 19:10 23.93893 -45.43184 38023 ft 556 kts 62°
2026-04-26 19:10 23.97016 -45.35446 38023 ft 556 kts 62°
2026-04-26 19:11 24.00134 -45.27706 38032 ft 555 kts 62°
2026-04-26 19:11 24.03227 -45.20015 38027 ft 555 kts 62°
2026-04-26 19:12 24.06338 -45.12268 38028 ft 555 kts 62°
2026-04-26 19:12 24.09445 -45.04518 38028 ft 555 kts 62°
2026-04-26 19:13 24.12549 -44.96759 38027 ft 555 kts 62°
2026-04-26 19:13 24.15644 -44.89011 38026 ft 555 kts 62°
2026-04-26 19:14 24.18723 -44.81288 38028 ft 555 kts 62°
2026-04-26 19:14 24.21814 -44.73522 38029 ft 555 kts 62°
2026-04-26 19:15 24.24896 -44.65766 38029 ft 555 kts 62°
2026-04-26 19:15 24.27961 -44.58038 38029 ft 555 kts 62°
2026-04-26 19:16 24.31034 -44.50276 38031 ft 554 kts 62°
2026-04-26 19:16 24.34099 -44.42520 38025 ft 554 kts 62°
2026-04-26 19:17 24.37160 -44.34763 38029 ft 554 kts 62°
2026-04-26 19:17 24.40219 -44.26995 38028 ft 554 kts 63°
2026-04-26 19:18 24.43272 -44.19229 38027 ft 554 kts 62°
2026-04-26 19:18 24.46300 -44.11513 38027 ft 553 kts 62°
2026-04-26 19:19 24.49341 -44.03751 38031 ft 554 kts 63°
2026-04-26 19:19 24.52382 -43.95974 38026 ft 553 kts 62°
2026-04-26 19:20 24.55417 -43.88199 38032 ft 553 kts 62°
2026-04-26 19:20 24.58428 -43.80470 38036 ft 553 kts 62°
2026-04-26 19:21 24.61454 -43.72691 38032 ft 553 kts 62°
2026-04-26 19:21 24.64472 -43.64917 38029 ft 553 kts 62°
2026-04-26 19:22 24.67487 -43.57136 38032 ft 553 kts 62°
2026-04-26 19:22 24.70495 -43.49360 38031 ft 553 kts 62°
2026-04-26 19:23 24.73506 -43.41563 38038 ft 553 kts 62°
2026-04-26 19:23 24.76510 -43.33770 38026 ft 553 kts 62°
2026-04-26 19:24 24.79487 -43.26031 38028 ft 553 kts 63°
2026-04-26 19:24 24.83980 -43.14325 38026 ft 553 kts 63°
2026-04-26 19:25 24.85979 -43.09108 38035 ft 553 kts 63°
2026-04-26 19:25 24.89950 -42.98722 38032 ft 553 kts 63°
2026-04-26 19:26 24.92933 -42.90905 38037 ft 553 kts 63°
2026-04-26 19:26 24.95898 -42.83121 38037 ft 553 kts 63°
2026-04-26 19:27 24.98873 -42.75294 38035 ft 554 kts 63°
2026-04-26 19:27 25.01834 -42.67491 38037 ft 554 kts 63°
2026-04-26 19:28 25.04804 -42.59648 38039 ft 554 kts 63°
2026-04-26 19:28 25.07291 -42.53072 38034 ft 554 kts 63°
2026-04-26 19:29 25.10241 -42.45256 38037 ft 555 kts 63°
2026-04-26 19:29 25.13206 -42.37384 38039 ft 555 kts 63°
2026-04-26 19:30 25.16169 -42.29504 38035 ft 555 kts 63°
2026-04-26 19:30 25.18627 -42.22956 38040 ft 555 kts 63°
2026-04-26 19:31 25.22087 -42.13722 38040 ft 556 kts 63°
2026-04-26 19:31 25.25022 -42.05871 38042 ft 556 kts 63°
2026-04-26 19:32 25.27971 -41.97967 38046 ft 556 kts 63°
2026-04-26 19:32 25.30924 -41.90039 38035 ft 557 kts 63°
2026-04-26 19:33 25.33873 -41.82108 38044 ft 557 kts 63°
2026-04-26 19:33 25.36799 -41.74221 38035 ft 557 kts 63°
2026-04-26 19:34 25.39740 -41.66279 38041 ft 558 kts 63°
2026-04-26 19:34 25.42680 -41.58325 38041 ft 558 kts 63°
2026-04-26 19:35 25.45618 -41.50356 38037 ft 559 kts 63°
2026-04-26 19:35 25.48557 -41.42376 38038 ft 560 kts 63°
2026-04-26 19:36 25.50998 -41.35733 38042 ft 560 kts 63°
2026-04-26 19:36 25.54407 -41.26438 38041 ft 560 kts 63°
2026-04-26 19:37 25.57338 -41.18430 38040 ft 560 kts 63°
2026-04-26 19:37 25.60264 -41.10419 38038 ft 560 kts 63°
2026-04-26 19:38 25.63188 -41.02397 38044 ft 560 kts 63°
2026-04-26 19:38 25.66106 -40.94378 38041 ft 561 kts 63°
2026-04-26 19:39 25.69016 -40.86363 38044 ft 561 kts 63°
2026-04-26 19:39 25.71911 -40.78374 38042 ft 561 kts 63°
2026-04-26 19:40 25.74821 -40.70328 38040 ft 561 kts 63°
2026-04-26 19:40 25.77721 -40.62292 38041 ft 561 kts 63°
2026-04-26 19:41 25.80622 -40.54240 38041 ft 561 kts 63°
2026-04-26 19:41 25.83028 -40.47548 38042 ft 561 kts 63°
2026-04-26 19:42 25.86409 -40.38125 38045 ft 562 kts 63°
2026-04-26 19:42 25.89285 -40.30092 38045 ft 562 kts 63°
2026-04-26 19:43 25.92169 -40.22020 38044 ft 562 kts 63°
2026-04-26 19:43 25.95051 -40.13938 38045 ft 562 kts 63°
2026-04-26 19:44 25.97930 -40.05848 38048 ft 562 kts 63°
2026-04-26 19:44 26.00780 -39.97792 38048 ft 562 kts 63°
2026-04-26 19:45 26.03580 -39.89669 38047 ft 563 kts 64°
2026-04-26 19:45 26.06359 -39.81527 38047 ft 563 kts 64°
2026-04-26 19:46 26.09137 -39.73383 38048 ft 563 kts 64°
2026-04-26 19:46 26.11901 -39.65284 38047 ft 563 kts 64°
2026-04-26 19:47 26.14229 -39.58454 38048 ft 563 kts 64°
2026-04-26 19:47 26.17454 -39.48973 38047 ft 563 kts 64°
2026-04-26 19:48 26.20223 -39.40813 38045 ft 563 kts 64°
2026-04-26 19:48 26.22990 -39.32642 38050 ft 563 kts 64°
2026-04-26 19:49 26.25730 -39.24529 38047 ft 563 kts 64°
2026-04-26 19:49 26.28485 -39.16357 38050 ft 563 kts 64°
2026-04-26 19:50 26.31237 -39.08176 38051 ft 563 kts 64°
2026-04-26 19:50 26.33987 -38.99985 38050 ft 563 kts 64°
2026-04-26 19:51 26.36729 -38.91799 38053 ft 563 kts 64°
2026-04-26 19:51 26.39450 -38.83656 38050 ft 563 kts 64°
2026-04-26 19:52 26.42185 -38.75457 38050 ft 563 kts 64°
2026-04-26 19:52 26.44915 -38.67252 38050 ft 563 kts 64°
2026-04-26 19:53 26.47639 -38.59046 38050 ft 563 kts 64°
2026-04-26 19:53 26.50356 -38.50846 38051 ft 563 kts 64°
2026-04-26 19:54 26.53070 -38.42635 38055 ft 563 kts 64°
2026-04-26 19:54 26.55763 -38.34474 38051 ft 563 kts 64°
2026-04-26 19:55 26.58465 -38.26264 38052 ft 563 kts 64°
2026-04-26 19:55 26.61167 -38.18035 38055 ft 563 kts 64°
2026-04-26 19:56 26.63863 -38.09806 38053 ft 563 kts 64°
2026-04-26 19:56 26.66551 -38.01585 38053 ft 563 kts 64°
2026-04-26 19:57 26.69233 -37.93364 38064 ft 563 kts 64°
2026-04-26 19:57 26.71912 -37.85130 38053 ft 562 kts 64°
2026-04-26 19:58 26.74568 -37.76952 38054 ft 562 kts 64°
2026-04-26 19:58 26.77238 -37.68713 38065 ft 562 kts 64°
2026-04-26 19:59 26.79899 -37.60482 38059 ft 562 kts 64°
2026-04-26 19:59 26.82556 -37.52246 38059 ft 562 kts 64°
2026-04-26 20:00 26.85212 -37.43999 38058 ft 562 kts 64°
2026-04-26 20:00 26.87838 -37.35820 38059 ft 562 kts 64°
2026-04-26 20:01 26.90475 -37.27583 38052 ft 562 kts 64°
2026-04-26 20:01 26.93113 -37.19331 38058 ft 562 kts 64°
2026-04-26 20:02 26.95745 -37.11077 38056 ft 561 kts 64°
2026-04-26 20:02 26.97925 -37.04225 38061 ft 561 kts 64°
2026-04-26 20:03 27.00974 -36.94623 38063 ft 561 kts 65°
2026-04-26 20:03 27.03588 -36.86368 38054 ft 560 kts 65°
2026-04-26 20:04 27.06193 -36.78125 38052 ft 560 kts 65°
2026-04-26 20:04 27.08778 -36.69928 38070 ft 560 kts 65°
2026-04-26 20:05 27.11369 -36.61688 38060 ft 560 kts 65°
2026-04-26 20:05 27.13961 -36.53428 38061 ft 560 kts 65°
2026-04-26 20:06 27.16548 -36.45165 38056 ft 560 kts 65°
2026-04-26 20:06 27.19116 -36.36946 38067 ft 560 kts 65°
2026-04-26 20:07 27.21695 -36.28670 38056 ft 560 kts 65°
2026-04-26 20:07 27.24264 -36.20405 38061 ft 560 kts 65°
2026-04-26 20:08 27.26811 -36.12192 38064 ft 559 kts 65°
2026-04-26 20:08 27.29370 -36.03922 38063 ft 559 kts 65°
2026-04-26 20:09 27.31912 -35.95691 38064 ft 559 kts 65°
2026-04-26 20:09 27.34454 -35.87434 38066 ft 558 kts 65°
2026-04-26 20:10 27.36990 -35.79180 38070 ft 558 kts 65°
2026-04-26 20:10 27.39523 -35.70917 38070 ft 558 kts 66°
2026-04-26 20:11 27.42050 -35.62652 38069 ft 557 kts 66°
2026-04-26 20:12 27.45810 -35.50319 38069 ft 556 kts 66°
2026-04-26 20:12 27.48316 -35.42075 38072 ft 555 kts 66°
2026-04-26 20:13 27.50817 -35.33831 38072 ft 555 kts 66°
2026-04-26 20:13 27.53308 -35.25596 38072 ft 555 kts 66°
2026-04-26 20:14 27.55373 -35.18754 38069 ft 554 kts 66°
2026-04-26 20:14 27.58244 -35.09215 38071 ft 552 kts 66°
2026-04-26 20:15 27.60296 -35.02388 38066 ft 552 kts 66°
2026-04-26 20:15 27.62756 -34.94182 38070 ft 552 kts 66°
2026-04-26 20:16 27.65208 -34.85980 38070 ft 551 kts 66°
2026-04-26 20:16 27.67657 -34.77772 38072 ft 551 kts 66°
2026-04-26 20:17 27.70093 -34.69586 38076 ft 550 kts 66°
2026-04-26 20:17 27.72501 -34.61471 38074 ft 548 kts 66°
2026-04-26 20:18 27.74920 -34.53300 38074 ft 548 kts 66°
2026-04-26 20:18 27.77334 -34.45132 38081 ft 547 kts 66°
2026-04-26 20:19 27.79731 -34.36993 38074 ft 544 kts 67°
2026-04-26 20:19 27.82116 -34.28881 38075 ft 543 kts 67°
2026-04-26 20:20 27.84480 -34.20825 38087 ft 543 kts 67°
2026-04-26 20:20 27.86851 -34.12721 38074 ft 542 kts 67°
2026-04-26 20:21 27.89213 -34.04628 38077 ft 542 kts 67°
2026-04-26 20:21 27.91570 -33.96534 38078 ft 542 kts 67°
2026-04-26 20:22 27.93922 -33.88438 38077 ft 542 kts 67°
2026-04-26 20:22 27.96269 -33.80339 38077 ft 542 kts 67°
2026-04-26 20:23 27.98614 -33.72225 38077 ft 542 kts 67°
2026-04-26 20:23 28.00937 -33.64165 38078 ft 540 kts 67°
2026-04-26 20:24 28.03255 -33.56103 38078 ft 538 kts 67°
2026-04-26 20:24 28.05566 -33.48047 38078 ft 538 kts 67°
2026-04-26 20:25 28.07872 -33.39993 38085 ft 537 kts 68°
2026-04-26 20:25 28.10166 -33.31953 38084 ft 534 kts 68°
2026-04-26 20:26 28.12432 -33.23996 38074 ft 534 kts 68°
2026-04-26 20:26 28.14713 -33.15972 38091 ft 534 kts 68°
2026-04-26 20:27 28.16981 -33.07966 38081 ft 531 kts 68°
2026-04-26 20:27 28.19208 -33.00083 38099 ft 526 kts 68°
2026-04-26 20:28 28.21551 -32.92255 38197 ft 524 kts 65°
2026-04-26 20:28 28.24124 -32.84525 38313 ft 521 kts 63°
2026-04-26 20:29 28.26913 -32.76971 38414 ft 518 kts 61°
2026-04-26 20:29 28.29945 -32.69570 38480 ft 516 kts 58°
2026-04-26 20:30 28.33228 -32.62351 38611 ft 514 kts 56°
2026-04-26 20:30 28.36765 -32.55347 38712 ft 509 kts 53°
2026-04-26 20:31 28.40528 -32.48635 38791 ft 506 kts 50°
2026-04-26 20:31 28.44603 -32.42116 38867 ft 503 kts 47°
2026-04-26 20:32 28.48944 -32.35908 38945 ft 500 kts 43°
2026-04-26 20:32 28.53564 -32.30033 39039 ft 496 kts 40°
2026-04-26 20:33 28.58427 -32.24572 39089 ft 492 kts 36°
2026-04-26 20:33 28.63590 -32.19505 39163 ft 488 kts 31°
2026-04-26 20:34 28.69015 -32.14916 39221 ft 483 kts 27°
2026-04-26 20:34 28.74644 -32.10889 39310 ft 478 kts 22°
2026-04-26 20:35 28.80537 -32.07421 39388 ft 473 kts 17°
2026-04-26 20:35 28.86599 -32.04617 39467 ft 467 kts 12°
2026-04-26 20:36 28.92797 -32.02533 39537 ft 461 kts
2026-04-26 20:36 28.99055 -32.01238 39607 ft 454 kts 359°
2026-04-26 20:37 29.05275 -32.00792 39691 ft 448 kts 352°
2026-04-26 20:37 29.11442 -32.01244 39766 ft 440 kts 345°
2026-04-26 20:38 29.17392 -32.02642 39839 ft 432 kts 337°
2026-04-26 20:38 29.22984 -32.05008 39918 ft 425 kts 329°
2026-04-26 20:39 29.28059 -32.08336 39996 ft 417 kts 319°
2026-04-26 20:39 29.32455 -32.12597 40085 ft 412 kts 309°
2026-04-26 20:40 29.35964 -32.17667 40169 ft 406 kts 299°
2026-04-26 20:40 29.38426 -32.23455 40254 ft 402 kts 288°
2026-04-26 20:41 29.39630 -32.29710 40369 ft 402 kts 275°
2026-04-26 20:41 29.39416 -32.36114 40470 ft 405 kts 262°
2026-04-26 20:42 29.37696 -32.42245 40577 ft 411 kts 248°
2026-04-26 20:42 29.34431 -32.47702 40679 ft 422 kts 232°
2026-04-26 20:43 29.29735 -32.51917 40809 ft 438 kts 216°
2026-04-26 20:43 29.23897 -32.54329 40935 ft 458 kts 198°
2026-04-26 20:43 29.20695 -32.54701 41017 ft 469 kts 188°
2026-04-26 20:44 29.17408 -32.54447 41099 ft 480 kts 178°
2026-04-26 20:44 29.14131 -32.53532 41185 ft 490 kts 167°
2026-04-26 20:44 29.10979 -32.51940 41268 ft 501 kts 156°
2026-04-26 20:44 29.08071 -32.49679 41360 ft 510 kts 144°
2026-04-26 20:45 29.05541 -32.46795 41468 ft 518 kts 132°
2026-04-26 20:45 29.03518 -32.43370 41567 ft 523 kts 120°
2026-04-26 20:45 29.02135 -32.39568 41672 ft 526 kts 106°
2026-04-26 20:45 29.01464 -32.35460 41821 ft 526 kts 92°
2026-04-26 20:46 29.01600 -32.31309 41960 ft 521 kts 77°
2026-04-26 20:46 29.02569 -32.27364 42110 ft 511 kts 61°
2026-04-26 20:46 29.04334 -32.23904 42261 ft 496 kts 44°
2026-04-26 20:46 29.06765 -32.21234 42432 ft 476 kts 25°
2026-04-26 20:47 29.09653 -32.19607 42616 ft 450 kts
2026-04-26 20:47 29.11645 -32.19211 42750 ft 431 kts 352°
2026-04-26 20:47 29.15325 -32.20146 43040 ft 391 kts 321°
2026-04-26 20:47 29.17225 -32.22191 43237 ft 367 kts 296°
2026-04-26 20:48 29.17991 -32.24896 43453 ft 358 kts 271°
2026-04-26 20:48 29.17491 -32.27669 43640 ft 364 kts 246°
2026-04-26 20:48 29.15814 -32.29896 43823 ft 383 kts 221°
2026-04-26 20:48 29.13281 -32.31052 43979 ft 409 kts 195°
2026-04-26 20:49 29.10412 -32.30836 44135 ft 434 kts 170°
2026-04-26 20:49 29.07693 -32.29191 44276 ft 453 kts 143°
2026-04-26 20:49 29.05708 -32.26363 44368 ft 462 kts 116°
2026-04-26 20:49 29.04845 -32.22889 44446 ft 457 kts 89°
2026-04-26 20:50 29.05186 -32.19349 44366 ft 444 kts 64°
2026-04-26 20:50 29.06519 -32.16267 44319 ft 422 kts 43°
2026-04-26 20:50 29.08487 -32.13929 44460 ft 395 kts 25°
2026-04-26 20:50 29.10774 -32.12355 44449 ft 374 kts 10°
2026-04-26 20:51 29.13198 -32.11465 44271 ft 359 kts 358°
2026-04-26 20:51 29.15631 -32.11165 44177 ft 345 kts 348°
2026-04-26 20:51 29.17970 -32.11339 44251 ft 330 kts 339°
2026-04-26 20:52 29.22276 -32.12677 44101 ft 316 kts 328°
2026-04-26 20:52 29.24255 -32.13681 43975 ft 313 kts 324°
2026-04-26 20:52 29.26165 -32.14830 43984 ft 308 kts 321°
2026-04-26 20:53 29.29811 -32.17310 43908 ft 305 kts 320°
2026-04-26 20:53 29.31631 -32.18580 43783 ft 307 kts 320°
2026-04-26 20:53 29.33490 -32.19821 43759 ft 308 kts 322°
2026-04-26 20:54 29.37312 -32.22002 43709 ft 312 kts 327°
2026-04-26 20:54 29.39354 -32.22906 43588 ft 317 kts 331°
2026-04-26 20:54 29.41488 -32.23632 43549 ft 323 kts 336°
2026-04-26 20:55 29.45999 -32.24384 43490 ft 335 kts 347°
2026-04-26 20:55 29.50753 -32.23975 43377 ft 352 kts
2026-04-26 20:56 29.55502 -32.22174 43303 ft 369 kts 15°
2026-04-26 20:56 29.59910 -32.18877 43188 ft 388 kts 32°
2026-04-26 20:57 29.63559 -32.14140 43130 ft 404 kts 49°
2026-04-26 20:57 29.66039 -32.08282 43063 ft 418 kts 68°
2026-04-26 20:58 29.67081 -32.01666 43042 ft 424 kts 86°
2026-04-26 20:58 29.66520 -31.94904 42953 ft 428 kts 105°
2026-04-26 20:59 29.64372 -31.88565 42919 ft 423 kts 124°
2026-04-26 20:59 29.60836 -31.83331 42833 ft 413 kts 144°
2026-04-26 21:00 29.56256 -31.79621 42823 ft 395 kts 163°
2026-04-26 21:00 29.51133 -31.77760 42638 ft 378 kts 183°
2026-04-26 21:00 29.48555 -31.77569 42635 ft 365 kts 193°
2026-04-26 21:01 29.46080 -31.77860 42675 ft 351 kts 203°
2026-04-26 21:01 29.43767 -31.78608 42648 ft 339 kts 213°
2026-04-26 21:01 29.41683 -31.79784 42573 ft 329 kts 224°
2026-04-26 21:01 29.39918 -31.81318 42565 ft 316 kts 234°
2026-04-26 21:02 29.38504 -31.83175 42630 ft 303 kts 245°
2026-04-26 21:02 29.37337 -31.85195 42425 ft 309 kts 245°
2026-04-26 21:02 29.36159 -31.87340 41704 ft 329 kts 245°
2026-04-26 21:02 29.34899 -31.89649 41016 ft 352 kts 244°
2026-04-26 21:03 29.33532 -31.92092 40386 ft 374 kts 243°
2026-04-26 21:03 29.32592 -31.93784 40057 ft 386 kts 243°
2026-04-26 21:03 29.31125 -31.96448 39583 ft 403 kts 243°
2026-04-26 21:03 29.29611 -31.99224 39200 ft 418 kts 243°
2026-04-26 21:04 29.28046 -32.02116 38866 ft 432 kts 243°
2026-04-26 21:04 29.26341 -32.05010 38621 ft 444 kts 239°
2026-04-26 21:04 29.24556 -32.07862 38429 ft 444 kts 239°
2026-04-26 21:04 29.22754 -32.10740 38232 ft 447 kts 239°
2026-04-26 21:05 29.20942 -32.13643 38065 ft 449 kts 239°
2026-04-26 21:05 29.19120 -32.16566 37910 ft 450 kts 239°
2026-04-26 21:05 29.17270 -32.19477 37768 ft 452 kts 236°
2026-04-26 21:06 29.12798 -32.24462 37719 ft 447 kts 221°
2026-04-26 21:06 29.07238 -32.27660 37848 ft 458 kts 204°
2026-04-26 21:07 29.01085 -32.29007 38270 ft 467 kts 192°
2026-04-26 21:07 28.98033 -32.29284 39057 ft 458 kts 188°
2026-04-26 21:07 28.94934 -32.29074 40436 ft 432 kts 176°
2026-04-26 21:07 28.92099 -32.28139 41691 ft 419 kts 163°
2026-04-26 21:08 28.89614 -32.26422 42371 ft 419 kts 145°
2026-04-26 21:08 28.87627 -32.23971 42113 ft 438 kts 129°
2026-04-26 21:08 28.85865 -32.21043 41670 ft 453 kts 127°
2026-04-26 21:08 28.84183 -32.18000 41832 ft 452 kts 123°
2026-04-26 21:09 28.82827 -32.14781 42178 ft 447 kts 112°
2026-04-26 21:09 28.80826 -32.07975 41732 ft 465 kts 108°
2026-04-26 21:09 28.79867 -32.04370 41204 ft 482 kts 108°
2026-04-26 21:10 28.78872 -32.00648 40761 ft 498 kts 108°
2026-04-26 21:10 28.77845 -31.96818 40400 ft 511 kts 108°
2026-04-26 21:10 28.76789 -31.92891 40091 ft 524 kts 108°
2026-04-26 21:10 28.75710 -31.88888 39823 ft 534 kts 107°
2026-04-26 21:11 28.74622 -31.84864 39622 ft 543 kts 107°
2026-04-26 21:11 28.73502 -31.80730 39438 ft 545 kts 107°
2026-04-26 21:11 28.72385 -31.76609 39270 ft 543 kts 107°
2026-04-26 21:11 28.71268 -31.72499 39092 ft 542 kts 107°
2026-04-26 21:12 28.70155 -31.68408 38933 ft 541 kts 107°
2026-04-26 21:12 28.69038 -31.64309 38756 ft 540 kts 107°
2026-04-26 21:12 28.67926 -31.60234 38549 ft 537 kts 107°
2026-04-26 21:12 28.67136 -31.56180 38568 ft 525 kts 96°
2026-04-26 21:13 28.66826 -31.52055 38705 ft 520 kts 91°
2026-04-26 21:13 28.66636 -31.43816 38832 ft 522 kts 89°
2026-04-26 21:13 28.66570 -31.39711 38960 ft 516 kts 89°
2026-04-26 21:14 28.66506 -31.35625 39079 ft 517 kts 88°
2026-04-26 21:14 28.67314 -31.27464 38960 ft 519 kts 75°
2026-04-26 21:14 28.68078 -31.23439 38772 ft 519 kts 73°
2026-04-26 21:15 28.68853 -31.19482 38538 ft 518 kts 73°
2026-04-26 21:15 28.69645 -31.15461 38326 ft 518 kts 73°
2026-04-26 21:15 28.70437 -31.11448 38193 ft 518 kts 73°
2026-04-26 21:16 28.72014 -31.03456 38183 ft 517 kts 73°
2026-04-26 21:16 28.73591 -30.95448 38183 ft 517 kts 73°
2026-04-26 21:17 28.75170 -30.87443 38194 ft 517 kts 73°
2026-04-26 21:17 28.76742 -30.79456 38178 ft 517 kts 73°
2026-04-26 21:18 28.78301 -30.71520 38181 ft 517 kts 74°
2026-04-26 21:18 28.79867 -30.63528 38183 ft 516 kts 74°
2026-04-26 21:19 28.81428 -30.55539 38182 ft 515 kts 74°
2026-04-26 21:19 28.82984 -30.47560 38191 ft 515 kts 74°
2026-04-26 21:20 28.84539 -30.39565 38208 ft 515 kts 74°
2026-04-26 21:20 28.86067 -30.31632 38189 ft 515 kts 74°
2026-04-26 21:21 28.87600 -30.23642 38191 ft 515 kts 74°
2026-04-26 21:21 28.89125 -30.15662 38190 ft 515 kts 74°
2026-04-26 21:22 28.90653 -30.07669 38194 ft 514 kts 72°
2026-04-26 21:22 28.93207 -30.00184 38190 ft 503 kts 57°
2026-04-26 21:23 28.98309 -29.89747 38189 ft 499 kts 51°
2026-04-26 21:23 29.02346 -29.83357 38187 ft 495 kts 47°
2026-04-26 21:24 29.06485 -29.77072 38196 ft 495 kts 47°
2026-04-26 21:24 29.10604 -29.70752 38190 ft 497 kts 51°
2026-04-26 21:25 29.12275 -29.67257 38192 ft 505 kts 62°
2026-04-26 21:25 29.13482 -29.63516 38192 ft 508 kts 67°
2026-04-26 21:25 29.15570 -29.55766 38192 ft 511 kts 71°
2026-04-26 21:26 29.17300 -29.47861 38192 ft 513 kts 72°
2026-04-26 21:26 29.29125 -28.91906 38139 ft 518 kts 72°
2026-04-26 21:27 29.33485 -28.69711 38460 ft 492 kts 94°
2026-04-26 21:27 29.33473 -28.69465 38285 ft 494 kts 89°
2026-04-26 21:27 29.33454 -28.69218 38111 ft 495 kts 100°
2026-04-26 21:27 29.33425 -28.68972 37925 ft 497 kts 102°
2026-04-26 21:28 29.33386 -28.68724 37749 ft 503 kts 109°
2026-04-26 21:28 29.33310 -28.68381 37506 ft 510 kts 105°
2026-04-26 21:28 29.33023 -28.67343 36753 ft 527 kts 111°
2026-04-26 21:28 29.32117 -28.64269 36024 ft 550 kts 105°
2026-04-26 21:29 29.31597 -28.62171 36046 ft 547 kts 101°
2026-04-26 21:29 29.31208 -28.58419 36326 ft 539 kts 87°
2026-04-26 21:29 29.36143 -28.40948 37861 ft 508 kts 58°
2026-04-26 21:30 29.39703 -28.31793 38717 ft 506 kts 61°
2026-04-26 21:30 29.41184 -28.28151 39024 ft 501 kts 55°
2026-04-26 21:30 29.50091 -28.19509 40028 ft 456 kts 21°
2026-04-26 21:30 29.52555 -28.17862 40287 ft 457 kts 24°
2026-04-26 21:31 29.53898 -28.16881 40413 ft 459 kts 25°
2026-04-26 21:31 29.55228 -28.15860 40451 ft 461 kts 26°
2026-04-26 21:32 29.59992 -28.12099 40334 ft 472 kts 27°
2026-04-26 21:32 29.65449 -28.07784 40194 ft 476 kts 27°
2026-04-26 21:32 29.70816 -28.03520 40038 ft 473 kts 27°
2026-04-26 21:32 29.76193 -27.99223 39912 ft 470 kts 27°
2026-04-26 21:33 29.81557 -27.94922 39768 ft 470 kts 27°
2026-04-26 21:33 29.86933 -27.90605 39628 ft 470 kts 27°
2026-04-26 21:33 29.97010 -27.80837 40042 ft 488 kts 44°
2026-04-26 21:34 30.01216 -27.74632 40210 ft 493 kts 45°
2026-04-26 21:34 30.05392 -27.68384 40207 ft 490 kts 45°
2026-04-26 21:34 30.13307 -27.55516 40207 ft 491 kts 48°
2026-04-26 21:35 30.19709 -27.41507 40211 ft 511 kts 73°
2026-04-26 21:35 30.22043 -27.25199 40208 ft 516 kts 78°
2026-04-26 21:36 30.24646 -27.11861 40212 ft 507 kts 66°
2026-04-26 21:36 30.29602 -26.93854 40214 ft 505 kts 66°
2026-04-26 21:37 30.33849 -26.78320 40215 ft 505 kts 66°
2026-04-26 21:37 30.38057 -26.62807 40213 ft 505 kts 66°
2026-04-26 21:38 30.42250 -26.47276 40213 ft 503 kts 66°
2026-04-26 21:38 30.46380 -26.31884 40214 ft 503 kts 66°
2026-04-26 21:39 30.53038 -26.06948 40216 ft 500 kts 66°
2026-04-26 21:39 30.61195 -25.76062 40216 ft 499 kts 67°
2026-04-26 21:40 30.69219 -25.45202 40216 ft 498 kts 67°
2026-04-26 21:40 30.77155 -25.14292 40217 ft 498 kts 67°
2026-04-26 21:41 30.84973 -24.83384 40216 ft 497 kts 67°
2026-04-26 21:41 30.92569 -24.52703 40229 ft 496 kts 67°
2026-04-26 21:42 31.00078 -24.21787 40220 ft 495 kts 67°
2026-04-26 21:42 31.07494 -23.90824 40216 ft 494 kts 68°
2026-04-26 21:43 31.14821 -23.59910 40216 ft 494 kts 68°
2026-04-26 21:43 31.22080 -23.28938 40216 ft 492 kts 68°
2026-04-26 21:44 31.29167 -22.98323 40215 ft 489 kts 68°
2026-04-26 21:44 31.36185 -22.67713 40209 ft 485 kts 68°
2026-04-26 21:45 31.43108 -22.37300 40208 ft 482 kts 68°
2026-04-26 21:45 31.49955 -22.07013 40202 ft 481 kts 68°
2026-04-26 21:46 31.56729 -21.76825 40207 ft 481 kts 68°
2026-04-26 21:46 31.63596 -21.46387 40229 ft 482 kts 69°
2026-04-26 21:47 31.70622 -21.15949 40191 ft 483 kts 69°
2026-04-26 21:47 31.77849 -20.85703 40192 ft 483 kts 69°
2026-04-26 21:48 31.85412 -20.55373 40192 ft 484 kts 69°
2026-04-26 21:48 31.93026 -20.24980 40200 ft 487 kts 73°
2026-04-26 21:49 31.98922 -19.93802 40182 ft 487 kts 74°
2026-04-26 21:49 32.04536 -19.65142 40187 ft 487 kts 74°
2026-04-26 21:50 32.04860 -19.63529 40181 ft 487 kts 74°
2026-04-26 21:50 32.05313 -19.61273 40189 ft 487 kts 74°
2026-04-26 21:51 32.05702 -19.59328 40180 ft 487 kts 74°
2026-04-26 21:51 32.06091 -19.57386 40183 ft 487 kts 74°
2026-04-26 21:52 32.06414 -19.55769 40179 ft 487 kts 74°
2026-04-26 21:52 32.06800 -19.53835 40181 ft 487 kts 74°
2026-04-26 21:53 32.07190 -19.51882 40181 ft 487 kts 74°
2026-04-26 21:53 32.07575 -19.49950 40180 ft 486 kts 74°
2026-04-26 21:54 32.07962 -19.48006 40184 ft 486 kts 74°
2026-04-26 21:54 32.08349 -19.46063 40183 ft 486 kts 74°
2026-04-26 21:55 32.08739 -19.44120 40187 ft 486 kts 74°
2026-04-26 21:55 32.09135 -19.42180 40181 ft 486 kts 74°
2026-04-26 21:56 32.09532 -19.40254 40182 ft 486 kts 74°
2026-04-26 21:56 32.09933 -19.38316 40179 ft 486 kts 74°
2026-04-26 21:57 32.10333 -19.36380 40177 ft 486 kts 74°
2026-04-26 21:57 32.10734 -19.34442 40176 ft 486 kts 74°
2026-04-26 21:58 32.11135 -19.32505 40177 ft 486 kts 74°
2026-04-26 21:58 32.11536 -19.30566 40181 ft 486 kts 74°
2026-04-26 21:59 32.11936 -19.28629 40182 ft 486 kts 74°
2026-04-26 21:59 32.12334 -19.26702 40179 ft 486 kts 74°
2026-04-26 22:00 32.12735 -19.24762 40173 ft 486 kts 74°
2026-04-26 22:00 32.13135 -19.22822 40176 ft 486 kts 74°
2026-04-26 22:01 32.13533 -19.20884 40177 ft 486 kts 74°
2026-04-26 22:01 32.13932 -19.18945 40180 ft 486 kts 74°
2026-04-26 22:02 32.14328 -19.17021 40180 ft 486 kts 74°
2026-04-26 22:02 32.14727 -19.15084 40178 ft 486 kts 74°
2026-04-26 22:03 32.15126 -19.13142 40173 ft 486 kts 74°
2026-04-26 22:03 32.15523 -19.11206 40180 ft 486 kts 75°
2026-04-26 22:04 32.15928 -19.09267 40177 ft 486 kts 74°
2026-04-26 22:04 32.16335 -19.07345 40177 ft 486 kts 74°
2026-04-26 22:05 32.16746 -19.05408 40173 ft 486 kts 74°
2026-04-26 22:05 32.17156 -19.03475 40175 ft 486 kts 74°
2026-04-26 22:06 32.17567 -19.01541 40170 ft 486 kts 74°
2026-04-26 22:06 32.17979 -18.99605 40176 ft 486 kts 74°
2026-04-26 22:07 32.18390 -18.97667 40168 ft 486 kts 74°
2026-04-26 22:07 32.18801 -18.95731 40171 ft 486 kts 74°
2026-04-26 22:08 32.19209 -18.93808 40171 ft 486 kts 74°
2026-04-26 22:08 32.19619 -18.91871 40169 ft 486 kts 74°
2026-04-26 22:09 32.20029 -18.89938 40169 ft 486 kts 74°
2026-04-26 22:09 32.20438 -18.88002 40170 ft 486 kts 74°
2026-04-26 22:10 32.20848 -18.86064 40173 ft 486 kts 75°
2026-04-26 22:10 32.21255 -18.84138 40170 ft 486 kts 74°
2026-04-26 22:11 32.21666 -18.82195 40170 ft 486 kts 74°
2026-04-26 22:11 32.22074 -18.80258 40169 ft 486 kts 74°
2026-04-26 22:12 32.22480 -18.78332 40169 ft 486 kts 75°
2026-04-26 22:12 32.22888 -18.76395 40167 ft 486 kts 74°
2026-04-26 22:13 32.23296 -18.74458 40169 ft 486 kts 75°
2026-04-26 22:13 32.23704 -18.72518 40167 ft 486 kts 75°
2026-04-26 22:14 32.24109 -18.70591 40165 ft 486 kts 75°
2026-04-26 22:14 32.24517 -18.68654 40167 ft 486 kts 75°
2026-04-26 22:15 32.24922 -18.66716 40167 ft 486 kts 75°
2026-04-26 22:15 32.25313 -18.64772 40164 ft 486 kts 75°
2026-04-26 22:16 32.25697 -18.62827 40171 ft 486 kts 76°
2026-04-26 22:16 32.26078 -18.60879 40170 ft 486 kts 75°
2026-04-26 22:17 32.26458 -18.58932 40168 ft 486 kts 76°
2026-04-26 22:17 32.26834 -18.56997 40171 ft 486 kts 76°
2026-04-26 22:18 32.27213 -18.55051 40166 ft 486 kts 76°
2026-04-26 22:18 32.27592 -18.53103 40165 ft 486 kts 76°
2026-04-26 22:19 32.27971 -18.51155 40170 ft 486 kts 76°
2026-04-26 22:19 32.28349 -18.49206 40171 ft 486 kts 76°
2026-04-26 22:20 32.28663 -18.47585 40168 ft 486 kts 76°
2026-04-26 22:20 32.29103 -18.45321 40168 ft 486 kts 76°
2026-04-26 22:21 32.29481 -18.43373 40170 ft 486 kts 76°
2026-04-26 22:21 32.29862 -18.41423 40167 ft 486 kts 76°
2026-04-26 22:22 32.30246 -18.39474 40167 ft 486 kts 76°
2026-04-26 22:22 32.30632 -18.37529 40161 ft 486 kts 76°
2026-04-26 22:23 32.31015 -18.35593 40164 ft 487 kts 76°
2026-04-26 22:23 32.31399 -18.33645 40165 ft 487 kts 76°
2026-04-26 22:24 32.31784 -18.31698 40162 ft 487 kts 76°
2026-04-26 22:24 32.32170 -18.29746 40159 ft 486 kts 76°
2026-04-26 22:25 32.32552 -18.27808 40162 ft 487 kts 76°
2026-04-26 22:25 32.32936 -18.25857 40159 ft 487 kts 76°
2026-04-26 22:26 32.33320 -18.23908 40164 ft 487 kts 76°
2026-04-26 22:26 32.33705 -18.21960 40162 ft 486 kts 76°
2026-04-26 22:27 32.34089 -18.20010 40156 ft 486 kts 76°
2026-04-26 22:27 32.34470 -18.18072 40163 ft 487 kts 76°
2026-04-26 22:28 32.34853 -18.16122 40160 ft 486 kts 76°
2026-04-26 22:28 32.35237 -18.14175 40155 ft 486 kts 76°
2026-04-26 22:29 32.35620 -18.12226 40161 ft 486 kts 76°
2026-04-26 22:29 32.36002 -18.10276 40158 ft 486 kts 76°
2026-04-26 22:30 32.36384 -18.08328 40159 ft 486 kts 76°
2026-04-26 22:30 32.36766 -18.06379 40158 ft 486 kts 77°
2026-04-26 22:31 32.37133 -18.04426 40157 ft 487 kts 76°
2026-04-26 22:31 32.37492 -18.02468 40160 ft 487 kts 77°
2026-04-26 22:32 32.37850 -18.00521 40155 ft 487 kts 77°
2026-04-26 22:32 32.38209 -17.98562 40155 ft 487 kts 77°
2026-04-26 22:33 32.38746 -17.95618 40154 ft 488 kts 77°
2026-04-26 22:34 32.39101 -17.93666 40158 ft 488 kts 77°
2026-04-26 22:34 32.39461 -17.91705 40157 ft 487 kts 76°
2026-04-26 22:35 32.39819 -17.89746 40155 ft 487 kts 77°
2026-04-26 22:35 32.43058 -17.71958 40147 ft 488 kts 77°
2026-04-26 22:36 32.48810 -17.40714 39475 ft 487 kts 77°
2026-04-26 22:36 32.51743 -17.25133 38848 ft 478 kts 77°
2026-04-26 22:36 32.54662 -17.09799 38089 ft 476 kts 77°
2026-04-26 22:36 32.57620 -16.94449 37341 ft 479 kts 77°
2026-04-26 22:37 32.60601 -16.79133 37159 ft 476 kts 77°
2026-04-26 22:37 32.66064 -16.48092 37143 ft 484 kts 79°
2026-04-26 22:38 32.71355 -16.16793 37126 ft 483 kts 79°
2026-04-26 22:38 32.76710 -15.85475 37113 ft 484 kts 79°
2026-04-26 22:39 32.81227 -15.59422 37112 ft 484 kts 79°
2026-04-26 22:39 32.87141 -15.22950 37103 ft 482 kts 84°
2026-04-26 22:40 32.90243 -14.96509 37103 ft 494 kts 83°
2026-04-26 22:40 32.94026 -14.63867 37084 ft 498 kts 84°
2026-04-26 22:41 32.97847 -14.31183 37078 ft 497 kts 85°
2026-04-26 22:41 33.01643 -13.98494 37065 ft 497 kts 84°
2026-04-26 22:41 33.03528 -13.82158 36318 ft 498 kts 84°
2026-04-26 22:42 33.05415 -13.65778 35525 ft 498 kts 85°
2026-04-26 22:42 33.07282 -13.49374 34735 ft 498 kts 85°
2026-04-26 22:42 33.09109 -13.33012 34057 ft 496 kts 84°
2026-04-26 22:43 33.12717 -13.00344 34038 ft 499 kts 84°
2026-04-26 22:43 33.16242 -12.67655 34031 ft 500 kts 85°
2026-04-26 22:44 33.19753 -12.34635 34024 ft 501 kts 84°
2026-04-26 22:44 33.21528 -12.18120 33310 ft 504 kts 85°
2026-04-26 22:44 33.23257 -12.01567 32047 ft 499 kts 85°
2026-04-26 22:44 33.24903 -11.85002 30841 ft 503 kts 85°
2026-04-26 22:45 33.26469 -11.68554 29621 ft 502 kts 85°
2026-04-26 22:45 33.28016 -11.52173 28313 ft 490 kts 85°
2026-04-26 22:45 33.29525 -11.36138 27053 ft 481 kts 84°
2026-04-26 22:45 33.30991 -11.20372 25849 ft 474 kts 84°
2026-04-26 22:46 33.32435 -11.04846 24993 ft 463 kts 85°
2026-04-26 22:46 33.33861 -10.89497 24987 ft 466 kts 85°
2026-04-26 22:46 33.35303 -10.74057 24983 ft 466 kts 86°
2026-04-26 22:46 33.36720 -10.58686 24981 ft 465 kts 86°
2026-04-26 22:47 33.38133 -10.43317 24996 ft 465 kts 84°
2026-04-26 22:47 33.39516 -10.28283 24970 ft 438 kts 84°
2026-04-26 22:47 33.40869 -10.13780 24983 ft 442 kts 86°
2026-04-26 22:47 33.42250 -9.99148 24965 ft 440 kts 85°
2026-04-26 22:48 33.43589 -9.84618 24978 ft 440 kts 84°
2026-04-26 22:48 33.44925 -9.70289 24966 ft 437 kts 87°
2026-04-26 22:48 33.45883 -9.58294 24962 ft 437 kts 87°
2026-04-26 22:48 33.46027 -9.56484 24920 ft 436 kts 87°
2026-04-26 22:49 33.46169 -9.54672 24791 ft 435 kts 86°
2026-04-26 22:49 33.46752 -9.47537 24151 ft 417 kts 86°
2026-04-26 22:49 33.47817 -9.34198 22829 ft 389 kts 86°
2026-04-26 22:49 33.48851 -9.21211 21464 ft 392 kts 87°
2026-04-26 22:50 33.49887 -9.08278 20171 ft 386 kts 86°
2026-04-26 22:50 33.50845 -8.95759 18723 ft 372 kts 87°
2026-04-26 22:50 33.51784 -8.83728 17116 ft 356 kts 87°
2026-04-26 22:50 33.52741 -8.72110 15407 ft 345 kts 87°
2026-04-26 22:51 33.52820 -8.60816 13791 ft 335 kts 94°
2026-04-26 22:51 33.52907 -8.49864 12530 ft 313 kts 93°
2026-04-26 22:51 33.52948 -8.39798 11693 ft 299 kts 93°
2026-04-26 22:51 33.52901 -8.29774 10599 ft 299 kts 93°
2026-04-26 22:52 33.52989 -8.19954 9244 ft 291 kts 91°
2026-04-26 22:52 33.53021 -8.10371 7850 ft 283 kts 91°
2026-04-26 22:52 33.49853 -8.02779 6706 ft 269 kts 151°
2026-04-26 22:52 33.44519 -7.96459 5532 ft 271 kts 133°
2026-04-26 22:53 33.43528 -7.95112 5274 ft 269 kts 130°
2026-04-26 22:53 33.42203 -7.91489 4844 ft 261 kts 99°
2026-04-26 22:53 33.43356 -7.87284 4525 ft 261 kts 48°
2026-04-26 22:53 33.46343 -7.84829 4080 ft 259 kts 26°
2026-04-26 22:54 33.49591 -7.83071 3605 ft 256 kts 25°
2026-04-26 22:54 33.52732 -7.81202 3317 ft 248 kts 39°
2026-04-26 22:54 33.53142 -7.80784 3323 ft 242 kts 45°
2026-04-26 22:54 33.53437 -7.80427 3328 ft 238 kts 50°
2026-04-26 22:55 33.54568 -7.77272 3331 ft 211 kts 81°
2026-04-26 22:55 33.54798 -7.75562 3349 ft 204 kts 81°
2026-04-26 22:55 33.55028 -7.73883 3352 ft 203 kts 81°
2026-04-26 22:55 33.55257 -7.72210 3342 ft 204 kts 81°
2026-04-26 22:56 33.55486 -7.70534 3336 ft 204 kts 81°
2026-04-26 22:56 33.55713 -7.68859 3340 ft 204 kts 81°
2026-04-26 22:56 33.55783 -7.67201 3342 ft 202 kts 104°
2026-04-26 22:56 33.55012 -7.65864 3332 ft 191 kts 139°
2026-04-26 22:57 33.53893 -7.65124 3329 ft 178 kts 158°
2026-04-26 22:57 33.52753 -7.64714 3327 ft 166 kts 162°
2026-04-26 22:57 33.51656 -7.64343 3317 ft 163 kts 161°
2026-04-26 22:57 33.50574 -7.63964 3133 ft 159 kts 161°
2026-04-26 22:58 33.49544 -7.63605 2907 ft 151 kts 161°
2026-04-26 22:58 33.48541 -7.63261 2712 ft 149 kts 160°
2026-04-26 22:58 33.47550 -7.62920 2517 ft 150 kts 160°
2026-04-26 22:58 33.46544 -7.62574 2319 ft 151 kts 160°
2026-04-26 22:59 33.45531 -7.62226 2148 ft 151 kts 160°
2026-04-26 22:59 33.44515 -7.61877 1961 ft 155 kts 159°
2026-04-26 22:59 33.43465 -7.61519 1778 ft 152 kts 159°
2026-04-26 22:59 33.42460 -7.61176 1520 ft 148 kts 160°
2026-04-26 23:00 33.41506 -7.60827 1296 ft 141 kts 159°
2026-04-26 23:00 33.40593 -7.60501 1101 ft 135 kts 163°
2026-04-26 23:00 33.39686 -7.60219 936 ft 132 kts 166°
2026-04-26 23:00 33.38817 -7.59923 738 ft 127 kts 162°
2026-04-26 23:01 33.37969 -7.59628 653 ft 127 kts 164°
2026-04-26 23:01 33.37330 -7.59412 659 ft 57 kts 164°
2026-04-26 23:01 33.37163 -7.59356 656 ft 13 kts 164°
2026-04-26 23:01 33.36841 -7.59247 656 ft 75 kts 163°
2026-04-26 23:02 33.36374 -7.59084 656 ft 65 kts 164°
2026-04-26 23:02 33.35974 -7.58951 657 ft 48 kts 165°
2026-04-26 23:02 33.35651 -7.58844 658 ft 43 kts 162°
2026-04-26 23:02 33.35376 -7.58741 661 ft 41 kts 163°
2026-04-26 23:03 33.35156 -7.58660 664 ft 22 kts 153°
2026-04-26 23:03 33.35129 -7.58518 663 ft 19 kts 76°
2026-04-26 23:03 33.35164 -7.58372 662 ft 0 kts 73°